2023/09/08 00:00:00, 5.5,20.4
2023/09/08 00:10:00, 7.0,20.4
2023/09/08 00:20:00, 8.0,20.4
2023/09/08 00:30:00, 8.7,20.3
2023/09/08 00:40:00, 9.6,20.2
2023/09/08 00:50:00,10.3,20.2
2023/09/08 01:00:00,11.1,20.1
2023/09/08 01:10:00,11.8,20.0
2023/09/08 01:20:00,12.4,20.1
2023/09/08 01:30:00,12.5,19.9
2023/09/08 01:40:00,12.4,20.0
2023/09/08 01:50:00,12.2,19.8
2023/09/08 02:00:00,11.8,19.8
2023/09/08 02:10:00,11.7,19.8
2023/09/08 02:20:00,11.5,19.6
2023/09/08 02:30:00,11.4,19.4
2023/09/08 02:40:00,11.3,19.3
2023/09/08 02:50:00,11.1,19.4
2023/09/08 03:00:00,11.1,19.1
2023/09/08 03:10:00,11.3,19.1
2023/09/08 03:20:00,11.0,19.3
2023/09/08 03:30:00,10.9,19.4
2023/09/08 03:40:00,10.9,19.3
2023/09/08 03:50:00,11.0,19.1
2023/09/08 04:00:00,11.0,19.0
2023/09/08 04:10:00,10.8,19.2
2023/09/08 04:20:00,10.6,19.3
2023/09/08 04:30:00,10.4,19.4
2023/09/08 04:40:00,10.2,19.6
2023/09/08 04:50:00,10.1,19.4
2023/09/08 05:00:00, 9.9,19.7
2023/09/08 05:10:00, 9.7,19.5
2023/09/08 05:20:00, 9.4,19.6
2023/09/08 05:30:00, 9.2,19.5
2023/09/08 05:40:00, 8.9,19.6
2023/09/08 05:50:00, 8.8,19.5
2023/09/08 06:00:00, 8.7,19.9
2023/09/08 06:10:00, 8.4,20.0
2023/09/08 06:20:00, 8.4,19.9
2023/09/08 06:30:00, 8.4,20.0
2023/09/08 06:40:00, 8.3,20.0
2023/09/08 06:50:00, 8.5,20.1
2023/09/08 07:00:00, 8.4,20.4
2023/09/08 07:10:00, 8.4,20.4
2023/09/08 07:20:00, 8.2,20.5
2023/09/08 07:30:00, 8.0,21.2
2023/09/08 07:40:00, 8.2,21.0
2023/09/08 07:50:00, 7.9,20.8
2023/09/08 08:00:00, 7.6,20.7
2023/09/08 08:10:00, 7.6,21.6
2023/09/08 08:20:00, 7.6,21.5
2023/09/08 08:30:00, 7.3,21.7
2023/09/08 08:40:00, 6.9,22.0
2023/09/08 08:50:00, 5.5,22.3
2023/09/08 09:00:00, 5.5,22.2
2023/09/08 09:10:00, 7.2,22.1
2023/09/08 09:20:00, 7.3,22.1
2023/09/08 09:30:00, 7.2,22.2
2023/09/08 09:40:00, 7.1,22.5
2023/09/08 09:50:00, 7.4,22.6
2023/09/08 10:00:00, 7.0,22.7
2023/09/08 10:10:00, 4.5,22.6
2023/09/08 10:20:00, 3.9,22.6
2023/09/08 10:30:00, 3.9,22.2
2023/09/08 10:40:00, 4.7,22.2
2023/09/08 10:50:00, 4.9,21.9
2023/09/08 11:00:00, 2.5,21.6
2023/09/08 11:10:00, 1.3,21.1
2023/09/08 11:20:00, 1.9,20.9
2023/09/08 11:30:00, 3.9,21.4
2023/09/08 11:40:00, 5.2,21.2
2023/09/08 11:50:00, 5.6,21.6
2023/09/08 12:00:00, 5.8,22.1
2023/09/08 12:10:00, 5.8,22.3
2023/09/08 12:20:00, 6.5,22.5
2023/09/08 12:30:00, 6.9,22.6
2023/09/08 12:40:00, 7.1,22.5
2023/09/08 12:50:00, 7.3,22.6
2023/09/08 13:00:00, 7.3,22.7
2023/09/08 13:10:00, 7.3,22.7
2023/09/08 13:20:00, 7.3,22.8
2023/09/08 13:30:00, 5.4,22.5
2023/09/08 13:40:00, 4.4,22.7
2023/09/08 13:50:00, 4.5,22.5
2023/09/08 14:00:00, 4.6,23.1
2023/09/08 14:10:00, 4.9,23.0
2023/09/08 14:20:00, 5.0,23.0
2023/09/08 14:30:00, 4.8,22.7
2023/09/08 14:40:00, 4.9,22.7
2023/09/08 14:50:00, 4.9,23.0
2023/09/08 15:00:00, 5.3,23.0
2023/09/08 15:10:00, 5.4,23.9
2023/09/08 15:20:00, 5.4,24.0
2023/09/08 15:30:00, 5.7,23.6
2023/09/08 15:40:00, 6.1,23.5
2023/09/08 15:50:00, 5.6,23.3
2023/09/08 16:00:00, 4.9,23.0
2023/09/08 16:10:00, 5.9,23.3
2023/09/08 16:20:00, 6.1,22.9
2023/09/08 16:30:00, 5.9,22.7
2023/09/08 16:40:00, 5.9,22.9
2023/09/08 16:50:00, 6.0,23.7
2023/09/08 17:00:00, 5.6,25.4
2023/09/08 17:10:00, 5.3,24.7
2023/09/08 17:20:00, 5.9,24.5
2023/09/08 17:30:00, 5.5,23.6
2023/09/08 17:40:00, 5.4,23.1
2023/09/08 17:50:00, 4.9,22.9
2023/09/08 18:00:00, 4.9,22.3
2023/09/08 18:10:00, 4.9,21.9
2023/09/08 18:20:00, 4.4,20.9
2023/09/08 18:30:00, 0.8,21.1
2023/09/08 18:40:00, 0.3,20.6
2023/09/08 18:50:00, 0.2,20.4
2023/09/08 19:00:00, 0.2,20.3
2023/09/08 19:10:00, 0.1,20.1
2023/09/08 19:20:00, 0.0,19.5
2023/09/08 19:30:00, 0.1,20.0
2023/09/08 19:40:00, 0.1,20.2
2023/09/08 19:50:00, 0.1,20.0
2023/09/08 20:00:00, 0.1,20.2
2023/09/08 20:10:00, 0.8,20.2
2023/09/08 20:20:00, 0.6,20.3
2023/09/08 20:30:00, 0.4,20.1
2023/09/08 20:40:00, 0.4,20.2
2023/09/08 20:50:00, 0.2,20.4
2023/09/08 21:00:00, 0.1,20.1
2023/09/08 21:10:00, 0.1,19.7
2023/09/08 21:20:00, 0.3,19.8
2023/09/08 21:30:00, 1.5,19.6
2023/09/08 21:40:00, 1.2,19.5
2023/09/08 21:50:00, 1.2,19.7
2023/09/08 22:00:00, 1.7,19.7
2023/09/08 22:10:00, 2.6,19.8
2023/09/08 22:20:00, 3.3,19.9
2023/09/08 22:30:00, 3.6,19.8
2023/09/08 22:40:00, 4.0,19.8
2023/09/08 22:50:00, 4.4,19.8
2023/09/08 23:00:00, 4.5,19.8
2023/09/08 23:10:00, 4.8,19.9
2023/09/08 23:20:00, 5.1,20.0
2023/09/08 23:30:00, 5.4,20.2
2023/09/08 23:40:00, 5.3,20.0
2023/09/08 23:50:00, 5.7,19.9
